Regional Weather Roundup
Issued by NWS Raleigh/Durham, NC

Home | Current Version | Previous Version | Text Only | Print | Product List | Glossary On
Versions: 1 2 3 4 5 6 7 8 9 10 11 12 13 14 15 16 17 18 19 20 21 22 23 24 25 26 27 28 29 30 31 32 33 34 35 36 37 38 39 40 41 42 43 44 45 46 47 48 49 50
000
ASUS42 KRAH 010110
RWRRAH
NORTH CAROLINA WEATHER ROUNDUP
NATIONAL WEATHER SERVICE RALEIGH NC
900 PM EDT THU JUL 31 2014

NOTE: "FAIR" INDICATES FEW OR NO CLOUDS BELOW 12,000 FEET WITH NO
SIGNIFICANT WEATHER AND/OR OBSTRUCTIONS TO VISIBILITY.

NCZ001-053-055-056-065-067-010200-
WESTERN NORTH CAROLINA

CITY           SKY/WX    TMP DP  RH WIND       PRES   REMARKS
ASHEVILLE      LGT RAIN  67  58  72 CALM      30.19S
JEFFERSON      FAIR      62  59  91 CALM      30.24S
MORGANTON      CLOUDY    67  66  95 N3        30.19F
HICKORY        CLOUDY    68  64  87 N3        30.14F
RUTHERFORDTON  MOCLDY    67  65  93 CALM      30.15S
MOUNT AIRY     LGT RAIN  71  67  87 CALM      30.16S
BOONE          CLOUDY    61  60  99 CALM      30.25R
$$

NCZ021-022-025-041-071-084-088-010200-
CENTRAL NORTH CAROLINA

CITY           SKY/WX    TMP DP  RH WIND       PRES   REMARKS
CHARLOTTE      TSTM      70  66  88 S7        30.14S FOG
GREENSBORO     LGT RAIN  67  63  87 N7        30.15S
WINSTON-SALEM  CLOUDY    71  67  87 E3        30.16F
RALEIGH-DURHAM LGT RAIN  73  69  87 CALM      30.14R
FORT BRAGG     LGT RAIN  74  71  92 NE2       30.12S
FAYETTEVILLE   MOCLDY    74  72  93 NE3       30.12R
BURLINGTON     LGT RAIN  72  68  87 CALM      30.14F
LAURINBURG     MOCLDY    73  70  90 NE3       30.12S
$$

NCZ011-015-027-028-043-044-047-080-103-010200-
NORTHEASTERN NORTH CAROLINA

CITY           SKY/WX    TMP DP  RH WIND       PRES   REMARKS
ROCKY MT-WILSO FAIR      74  69  85 CALM      30.13S
GREENVILLE     FAIR      79  68  69 SE3       30.15R
WASHINGTON     FAIR      75  67  76 E3        30.14R
ELIZABETH CITY FAIR      75  64  68 SE5       30.16R
MANTEO         NOT AVBL
CAPE HATTERAS  FAIR      77  65  66 NE5       30.14R
$$

NCZ078-087-090-091-093-098-101-010200-
SOUTHEASTERN NORTH CAROLINA

CITY           SKY/WX    TMP DP  RH WIND       PRES   REMARKS
LUMBERTON      FAIR      77  68  73 E3        30.10S
GOLDSBORO      FAIR      77  71  83 E5        30.11R
KINSTON        FAIR      77  66  69 E7        30.14R
KENANSVILLE    FAIR      73  69  87 CALM      30.13S
NEW BERN       FAIR      79  65  62 CALM      30.15R
CHERRY POINT   MOCLDY    76  68  76 E7        30.13S
BEAUFORT       FAIR      79  70  74 E6        30.12S
JACKSONVILLE   FAIR      78  69  73 E9        30.12R
WILMINGTON     FAIR      80  69  69 E8        30.10S
$$



USA.gov is the U.S. government's official web portal to all federal, state and local government web resources and services.